Change the Weather History Date:

Sunday, October 7, 2012

  Actual Average Record
Temperature  
Mean Temperature 44 °F -  
Max Temperature 57 °F 72 °F 97 °F (1963)
Min Temperature 32 °F 48 °F 28 °F (1952)
Degree Days  
Heating Degree Days 20    
Moisture  
Dew Point 29 °F    
Average Humidity 60    
Maximum Humidity 89    
Minimum Humidity 30    
Precipitation  
Precipitation 0.00 in - - ()
Sea Level Pressure  
Sea Level Pressure 30.30 in    
Wind  
Wind Speed 2 mph (West)    
Max Wind Speed 7 mph    
Max Gust Speed -    
Visibility 10 miles    
Events      
Averages and records for this station are not official NWS values.
T = Trace of Precipitation, MM = Missing Value Source: NWS Daily Summary

Daily Weather History Graph

Daily Weather History Graph

Search for Another Location

Airport or City:

Trip Planner

Search our weather history database for the weather conditions in past years. The results will help you decide how hot, cold, wet, or windy it might be!

Date:

Astronomy

Oct. 07, 2012 Rise Set
Actual Time 7:23 AM CDT 6:55 PM CDT
Civil Twilight 6:57 AM CDT 7:21 PM CDT
Nautical Twilight 6:26 AM CDT 7:51 PM CDT
Astronomical Twilight 5:56 AM CDT 8:22 PM CDT
Moon No Moon Rise 1:55 PM CDT (10/7)
Length of Visible Light 12h 24m
Length of Day
11h 32m
Waning Gibbous, 56% of the Moon is Illuminated
Oct 7
Waning Gibbous
Oct 8
Last Quarter
Oct 15
New
Oct 21
First Quarter
Oct 29
Full

Hourly Weather History & Observations

Time (CDT) Temp. Windchill Dew Point Humidity Pressure Visibility Wind Dir Wind Speed Gust Speed Precip Events Conditions
12:52 AM 41.0 °F - 34.0 °F 76% 30.35 in 10.0 mi Calm Calm - N/A   Overcast
1:52 AM 39.9 °F - 32.0 °F 73% 30.35 in 10.0 mi Calm Calm - N/A   Overcast
2:52 AM 39.9 °F - 32.0 °F 73% 30.35 in 10.0 mi Calm Calm - N/A   Overcast
3:52 AM 37.0 °F - 32.0 °F 82% 30.35 in 10.0 mi Calm Calm - N/A   Overcast
4:52 AM 33.1 °F - 30.0 °F 89% 30.34 in 10.0 mi Calm Calm - N/A   Clear
5:52 AM 32.0 °F 27.5 °F 28.0 °F 85% 30.34 in 10.0 mi North 4.6 mph - N/A   Clear
6:52 AM 32.0 °F 25.6 °F 28.0 °F 85% 30.35 in 10.0 mi North 6.9 mph - N/A   Clear
7:52 AM 32.0 °F - 28.9 °F 88% 30.35 in 10.0 mi Calm Calm - N/A   Clear
8:52 AM 39.9 °F 37.8 °F 30.9 °F 70% 30.35 in 10.0 mi North 3.5 mph - N/A   Clear
9:52 AM 46.9 °F - 30.0 °F 52% 30.36 in 10.0 mi NNW 4.6 mph - N/A   Clear
10:52 AM 50.0 °F - 28.0 °F 43% 30.37 in 10.0 mi Variable 5.8 mph - N/A   Clear
11:52 AM 52.0 °F - 27.0 °F 38% 30.35 in 10.0 mi Variable 3.5 mph - N/A   Clear
12:52 PM 55.0 °F - 27.0 °F 34% 30.32 in 10.0 mi Calm Calm - N/A   Clear
1:52 PM 54.0 °F - 25.0 °F 33% 30.29 in 10.0 mi Calm Calm - N/A   Clear
2:52 PM 55.9 °F - 26.1 °F 32% 30.26 in 10.0 mi Calm Calm - N/A   Clear
3:52 PM 57.0 °F - 26.1 °F 30% 30.23 in 10.0 mi West 3.5 mph - N/A   Clear
4:52 PM 55.9 °F - 26.1 °F 32% 30.22 in 10.0 mi Variable 4.6 mph - N/A   Clear
5:52 PM 55.9 °F - 26.1 °F 32% 30.20 in 10.0 mi SSW 3.5 mph - N/A   Clear
6:52 PM 50.0 °F - 28.9 °F 44% 30.21 in 10.0 mi South 3.5 mph - N/A   Clear
7:52 PM 46.0 °F 43.9 °F 28.0 °F 50% 30.22 in 10.0 mi South 4.6 mph - N/A   Clear
8:52 PM 37.0 °F - 30.0 °F 76% 30.23 in 10.0 mi Calm Calm - N/A   Clear
9:52 PM 37.9 °F - 28.9 °F 70% 30.24 in 10.0 mi Calm Calm - N/A   Clear
10:52 PM 37.0 °F - 28.9 °F 73% 30.24 in 10.0 mi Calm Calm - N/A   Clear
11:52 PM 37.0 °F 34.5 °F 28.9 °F 73% 30.22 in 10.0 mi South 3.5 mph - N/A   Clear